Regional Weather Roundup
Issued by NWS Green Bay, WI

Home | Current Version | Previous Version | Graphics & Text | Print | Product List | Glossary Off
Versions: 1 2 3 4 5 6 7 8 9 10 11 12 13 14 15 16 17 18 19 20 21 22 23 24 25 26 27 28 29 30 31 32 33 34 35 36 37 38 39 40 41 42 43 44 45 46 47 48 49 50

000
ASUS43 KGRB 031011
RWRGRB

NORTH-CENTRAL AND NORTHEAST WISCONSIN REGIONAL WEATHER ROUNDUP
NATIONAL WEATHER SERVICE GREEN BAY WI
400 AM CST SAT DEC 03 2016

WIZ005-009-010>012-018-019-031100-
NORTH CENTRAL WISCONSIN

CITY           SKY/WX    TMP DP  RH WIND       PRES   REMARKS
IRONWOOD       CLOUDY   N/A N/A N/A SW6       30.25S
MANITOWISH WTR CLOUDY    26  26 100 W3        30.22F
ARBOR VITAE    CLOUDY    28  26  92 SW3       30.22F
EAGLE RIVER    CLOUDY    28  28 100 CALM      30.22S FOG
LAND O LAKES   NOT AVBL
RHINELANDER    CLOUDY    28  25  88 W6        30.23S
PHILLIPS       NOT AVBL
ANTIGO         CLOUDY    28  24  85 W6        30.24S
TOMAHAWK       CLOUDY    26  22  85 W3        30.25S
MERRILL        NOT AVBL
$$

WIZ013-073-031100-
NORTHEAST WISCONSIN

CITY           SKY/WX    TMP DP  RH WIND       PRES   REMARKS
IRON MOUNTAIN  NOT AVBL
MARINETTE      CLOUDY    33  28  81 W5        30.26S
$$

WIZ017-030-035>037-045-031100-
CENTRAL WISCONSIN

CITY           SKY/WX    TMP DP  RH WIND       PRES   REMARKS
MEDFORD        CLOUDY    27  22  81 W3        30.24S
WAUSAU         CLOUDY    28  22  78 NW7       30.25
MOSINEE        CLOUDY    28  27  93 NW8       30.27S
MARSHFIELD     CLOUDY    28  22  78 W3        30.25
WISC RAPIDS    CLOUDY    30  24  78 W3        30.29
STEVENS POINT  CLOUDY    28  21  77 W6        30.28S
WAUPACA        NOT AVBL
SHAWANO        NOT AVBL
CLINTONVILLE   NOT AVBL
WAUTOMA        NOT AVBL
$$

WIZ038-039-048-051-031100-
FOX VALLEY

CITY           SKY/WX    TMP DP  RH WIND       PRES   REMARKS
NWS GREEN BAY  NOT AVBL
APPLETON       CLOUDY    32  23  69 W6        30.26S
OSHKOSH        CLOUDY    31  22  69 W5        30.28S
FOND DU LAC    CLOUDY    31  21  66 NW8       30.30R
$$

WIZ022-050-052-031100-
EAST CENTRAL WISCONSIN

CITY           SKY/WX    TMP DP  RH WIND       PRES   REMARKS
EPHRAIM        NOT AVBL
WASHINGTON ISL NOT AVBL
STURGEON BAY   CLOUDY    35  29  78 NW8       30.26S
MANITOWOC      CLOUDY    33  27  78 MISG      30.29
SHEBOYGAN      CLOUDY    32  24  72 W7        30.29S
$$

LMZ563-521-522-541>543-031100-
LAKESHORE

STATION/POSITION TIME  TEMP    WIND        PRES    VSBY  WAVE
                       AIR SEA DIR/SP/G                  HT/PER
                 (UTC) (F)     (DEG/KT/KT) (MB)    (MI)  (FT/S)
SHEBOYGAN LKSHOR 1000   33     260/ 10/ 13 1026.2R
KEWAUNEE LKSHORE 0942   33     280/  6/  9 1024.2F
ALGOMA MARINA    0936          310/  5/  8   N/A
NORTHPORT PIER   0940   37     320/ 10/ 13 1024.0S
SISTER BAY LKSHO 0923   36     330/ 14/ 17   N/A
CHAMBERS ISLAND  0940   36     290/  6/ 11 1023.7F
MENOMINEE LKSHOR 0942   34     270/  8/ 11 1023.7S
$$



USA.gov is the U.S. government's official web portal to all federal, state and local government web resources and services.